Weather in Aridaia

Greece     40°58′21″N   22°03′29″E
temp.,
°C
wind,
m/s
gust,
m/s
humid.,
%
clouds,
%
prec.,
mm/h
press.,
hPa
HPBL,
m
2 march, tue
tue223:00+3nnw57680 0.0 1031194
02:00+1nnw35760 0.0 103397
05:00+1nnw44780 0.0 1033107
08:00+2nnw34760 0.0 1034170
11:00+6n12460 0.0 10331153
14:00+9nnw23370 0.0 10311427
17:00+8nnw35450 0.0 1030935
20:00+4nnw46580 0.0 1032107
3 march, wed
wed323:00+4nnw56590 0.0 1033126
02:00+3nnw56600 0.0 1033108
05:00+3nnw55550 0.0 103298
08:00+3nnw45520 0.0 103390
11:00+10e02370 0.0 1031484
14:00+12se22390 0.0 1030767
17:00+11sse22480 0.0 1028405
20:00+7nnw12590 0.0 102922
4 march, thu
thu423:00+6nnw22440 0.0 102922
02:00+5nnw11450 0.0 102822
05:00+4nw11490 0.0 102722
08:00+5nw01520 0.0 102622
11:00+10sse21480 0.0 1024372
14:00+12sse32480 0.0 1021567
17:00+11sse22570 0.0 1019296
20:00+6nnw01800 0.0 102022
5 march, fri
fri523:00+6wnw01714 0.0 102022
02:00+5wnw11679 0.0 102022
05:00+5wnw225915 0.0 101922
08:00+5wnw125619 0.0 101922
11:00+11sse22453 0.0 1017535
14:00+13sse334228 0.0 1015946
17:00+12se335141 0.0 1015541
20:00+8n117371 0.0 101722
6 march, sat
sat623:00+8wnw1160100 0.0 101822
02:00+7nw2349100 0.0 101832
05:00+6nw336197 0.0 101844
08:00+6nw336598 0.0 101979
11:00+11nw234569 0.0 10201234
14:00+11n435259 0.0 10191236
17:00+7nnw676271 0.0 1020397
20:00+4nnw686642 0.0 1023254